Regional Weather Roundup
Issued by NWS

Home | Current Version | Previous Version | Text Only | Print | Product List | Glossary On
Versions: 1 2 3 4 5 6 7 8 9 10 11 12 13 14 15 16 17 18 19 20 21 22 23 24 25 26 27 28 29 30 31 32 33 34 35 36 37 38 39 40 41 42 43 44 45 46 47 48 49 50
000
ASUS43 KLMK 310602
RWRKY
KENTUCKY REGIONAL WEATHER ROUNDUP
NATIONAL WEATHER SERVICE LOUISVILLE KY
200 AM EDT MON AUG 31 2015

NOTE "FAIR" INDICATES FEW OR NO CLOUDS BELOW 12,000 FEET
WITH NO SIGNIFICANT WEATHER AND/OR OBSTRUCTIONS TO VISIBILITY.

KYZ001>023-026-027-061>063-070>075-310700-
WESTERN AND SOUTH CENTRAL KENTUCKY

CITY           SKY/WX    TMP DP  RH WIND       PRES   REMARKS
PADUCAH        FAIR      67  65  93 CALM      30.04F
HENDERSON      FAIR      66  63  88 CALM      30.05S
OWENSBORO      FAIR      69  68  97 S5        30.07F
HOPKINSVILLE   FAIR      70  68  93 SE3       30.06F
BOWLING GREEN  FAIR      66  63  90 CALM      30.09S
GLASGOW        NOT AVBL
$$

KYZ024-025-028>034-038-045-046-053-310700-
NORTH CENTRAL KENTUCKY

CITY           SKY/WX    TMP DP  RH WIND       PRES   REMARKS
LOUISVILLE/SDF MOCLDY    74  66  76 S3        30.07F
LOUISVILLE/LOU FAIR      72  68  87 S3        30.08F
FORT KNOX      FAIR      67  65  93 S1        30.08S
$$

KYZ035>037-039>044-047>052-055>060-089>105-310700-
NORTHEAST KENTUCKY

CITY           SKY/WX    TMP DP  RH WIND       PRES   REMARKS
LEXINGTON      MOCLDY    70  65  84 S6        30.11S
COVINGTON      FAIR      70  66  87 SW3       30.09S
FRANKFORT      MOCLDY    69  66  90 CALM      30.09S
$$

KYZ054-064>069-076>088-106>120-310700-
SOUTHEAST KENTUCKY

CITY           SKY/WX    TMP DP  RH WIND       PRES   REMARKS
JACKSON        FAIR      72  64  76 CALM      30.13F
LONDON         FAIR      70  64  81 CALM      30.13S
SOMERSET       NOT AVBL
MIDDLESBORO    CLOUDY    67  67  98 CALM      30.13F
MONTICELLO     FAIR      62  62 100 CALM      30.14S FOG
$$




USA.gov is the U.S. government's official web portal to all federal, state and local government web resources and services.